Simultaneous Nadir Overpasses (SNOs) Predictions

Prediction of SNOs between AQUA and METOP-A Satellite Orbit:

Table of predicted SNOs for the next 14.0 days since TLE Epoch: 11/24/2018
Index Date (AQUA) Time (AQUA) Lat,Lon (AQUA) SZA (AQUA ) Date (METOP-A) Time (METOP-A) Lat,Lon (METOP-A) SZA (METOP-A ) Distance(km) Time Diff (sec)
1 11/25/2018 18:17:54 -74.67, 77.82 84.54 11/25/2018 18:16:41 -74.67, 77.95 84.53 3.72 73
2 11/25/2018 19:07:22 74.73,-114.68 95.53 11/25/2018 19:07:20 74.71,-114.63 95.51 2.52 2
3 11/25/2018 19:56:49 -74.77, 52.86 84.42 11/25/2018 19:58:00 -74.79, 52.92 84.41 3.00 71
4 11/28/2018 13:52:09 -74.66, 144.30 84.03 11/28/2018 13:50:57 -74.65, 144.28 84.04 1.23 72
5 11/28/2018 14:41:37 74.71, -48.20 96.03 11/28/2018 14:41:35 74.72, -48.18 96.05 1.69 2
6 11/28/2018 15:31:04 -74.75, 119.34 83.92 11/28/2018 15:32:16 -74.76, 119.25 83.91 2.62 72
7 12/01/2018 09:26:23 -74.65,-149.24 83.58 12/01/2018 09:25:11 -74.66,-149.26 83.55 2.19 72
8 12/01/2018 10:15:52 74.75, 18.14 96.54 12/01/2018 10:15:49 74.74, 18.27 96.53 4.01 3
9 12/01/2018 11:05:19 -74.79,-174.33 83.41 12/01/2018 11:06:30 -74.78,-174.29 83.43 1.88 71
10 12/04/2018 05:00:39 -74.69, -82.92 83.11 12/04/2018 04:59:26 -74.68, -82.82 83.12 3.37 73
11 12/04/2018 05:50:07 74.75, 84.59 96.95 12/04/2018 05:50:04 74.75, 84.70 96.95 3.34 3
12 12/04/2018 06:39:34 -74.79,-107.88 83.00 12/04/2018 06:40:45 -74.80,-107.84 83.00 1.33 71
13 12/07/2018 00:34:54 -74.70, -16.49 82.75 12/07/2018 00:33:41 -74.69, -16.38 82.75 3.35 73
14 12/07/2018 01:24:22 74.75, 151.02 97.31 12/07/2018 01:24:19 74.76, 151.13 97.32 3.31 3




NCC Satellite Simultaneous Nadir Overpasses (SNOs) Prediction Service
